| time (UTC) | temp F | wind direction | speed MPH | gust MPH | rain 1hr in | rain 24hr in | rain mn in | humidity % | barometer mb |
| 20260903064602 | 80 | 170 | 2.0 | 4.0 | 0.00 | 0.00 | 0.00 | 56 | 1010.1 |
| 20260903063053 | 81 | 182 | 2.0 | 6.0 | 0.00 | 0.00 | 0.00 | 55 | 1010.1 |
| 20260903061558 | 81 | 157 | 3.0 | 6.0 | 0.00 | 0.00 | 0.00 | 54 | 1010.0 |
| 20260903060051 | 82 | 155 | 2.0 | 6.0 | 0.00 | 0.00 | 0.00 | 53 | 1010.0 |
| 20260903054551 | 83 | 192 | 3.0 | 7.0 | 0.00 | 0.00 | 0.00 | 52 | 1010.1 |
| 20260903053102 | 84 | 165 | 3.0 | 7.0 | 0.00 | 0.00 | 0.00 | 50 | 1010.0 |
| 20260903051542 | 85 | 162 | 4.0 | 10.0 | 0.00 | 0.00 | 0.00 | 50 | 1009.9 |
| 20260903050037 | 85 | 135 | 5.0 | 10.0 | 0.00 | 0.00 | 0.00 | 49 | 1009.8 |
| 20260903044550 | 85 | 175 | 5.0 | 9.0 | 0.00 | 0.00 | 0.00 | 49 | 1009.7 |
| 20260903043036 | 83 | 166 | 4.0 | 7.0 | 0.00 | 0.00 | 0.00 | 49 | 1009.7 |
| 20260903041536 | 83 | 159 | 2.0 | 6.0 | 0.00 | 0.00 | 0.00 | 48 | 1009.7 |
| 20260903040034 | 82 | 190 | 3.0 | 5.0 | 0.00 | 0.00 | 0.00 | 48 | 1010.0 |
| 20260903034534 | 83 | 163 | 1.0 | 5.0 | 0.00 | 0.00 | 0.00 | 47 | 1009.8 |
| 20260903033035 | 84 | 160 | 1.0 | 3.0 | 0.00 | 0.00 | 0.00 | 46 | 1009.6 |
| 20260903031534 | 84 | 138 | 1.0 | 3.0 | 0.00 | 0.00 | 0.00 | 45 | 1009.5 |
| 20260903030040 | 85 | 136 | 1.0 | 2.0 | 0.00 | 0.00 | 0.00 | 44 | 1009.3 |
| 20260903024540 | 86 | 136 | 0.0 | 4.0 | 0.00 | 0.00 | 0.00 | 43 | 1009.0 |
| 20260903023032 | 87 | 136 | 1.0 | 3.0 | 0.00 | 0.00 | 0.00 | 41 | 1008.8 |
| 20260903021535 | 88 | 130 | 1.0 | 3.0 | 0.00 | 0.00 | 0.00 | 40 | 1008.7 |
| 20260903020033 | 90 | 130 | 0.0 | 2.0 | 0.00 | 0.00 | 0.00 | 38 | 1008.5 |
| 20260903014532 | 91 | 130 | 1.0 | 4.0 | 0.00 | 0.00 | 0.00 | 37 | 1008.3 |
| 20260903013030 | 92 | 134 | 1.0 | 4.0 | 0.00 | 0.00 | 0.00 | 36 | 1008.2 |
| 20260903011539 | 93 | 94 | 2.0 | 6.0 | 0.00 | 0.00 | 0.00 | 36 | 1008.1 |
| 20260903010028 | 94 | 119 | 1.0 | 3.0 | 0.00 | 0.00 | 0.00 | 35 | 1007.9 |
| 20260903004532 | 95 | 119 | 1.0 | 3.0 | 0.00 | 0.00 | 0.00 | 33 | 1007.9 |
| 20260903003027 | 96 | 109 | 1.0 | 4.0 | 0.00 | 0.00 | 0.00 | 32 | 1007.8 |
| 20260903001527 | 97 | 105 | 1.0 | 6.0 | 0.00 | 0.00 | 0.00 | 32 | 1007.8 |
| 20260903000026 | 97 | 134 | 2.0 | 7.0 | 0.00 | 0.00 | 0.00 | 31 | 1007.9 |
| 20260902234525 | 99 | 100 | 4.0 | 12.0 | 0.00 | 0.00 | 0.00 | 30 | 1008.0 |
| 20260902233031 | 99 | 76 | 5.0 | 9.0 | 0.00 | 0.00 | 0.00 | 30 | 1008.0 |
| 20260902231524 | 100 | 89 | 4.0 | 13.0 | 0.00 | 0.00 | 0.00 | 30 | 1008.0 |
| 20260902230023 | 101 | 138 | 3.0 | 9.0 | 0.00 | 0.00 | 0.00 | 29 | 1008.0 |
| 20260902224524 | 101 | 80 | 3.0 | 9.0 | 0.00 | 0.00 | 0.00 | 29 | 1008.1 |
| 20260902223021 | 101 | 97 | 5.0 | 9.0 | 0.00 | 0.00 | 0.00 | 29 | 1008.1 |
| 20260902221520 | 101 | 57 | 1.0 | 6.0 | 0.00 | 0.00 | 0.00 | 30 | 1008.2 |
| 20260902220119 | 101 | 175 | 1.0 | 5.0 | 0.00 | 0.00 | 0.00 | 30 | 1008.4 |
| 20260902214513 | 100 | 167 | 2.0 | 6.0 | 0.00 | 0.00 | 0.00 | 31 | 1008.5 |
| 20260902213011 | 99 | 194 | 1.0 | 4.0 | 0.00 | 0.00 | 0.00 | 32 | 1008.6 |
| 20260902211509 | 97 | 211 | 1.0 | 4.0 | 0.00 | 0.00 | 0.00 | 33 | 1008.9 |
| 20260902210007 | 98 | 192 | 1.0 | 3.0 | 0.00 | 0.00 | 0.00 | 32 | 1009.1 |
| 20260902204506 | 97 | 219 | 2.0 | 6.0 | 0.00 | 0.00 | 0.00 | 34 | 1009.4 |
| 20260902203004 | 98 | 31 | 1.0 | 3.0 | 0.00 | 0.00 | 0.00 | 33 | 1009.5 |
| 20260902201502 | 98 | 190 | 1.0 | 6.0 | 0.00 | 0.00 | 0.00 | 34 | 1009.7 |
| 20260902200117 | 99 | 55 | 4.0 | 10.0 | 0.00 | 0.00 | 0.00 | 32 | 1009.9 |
| 20260902194601 | 99 | 117 | 3.0 | 11.0 | 0.00 | 0.00 | 0.00 | 33 | 1010.1 |
| 20260902193057 | 100 | 216 | 5.0 | 9.0 | 0.00 | 0.00 | 0.00 | 31 | 1010.4 |
| 20260902191553 | 99 | 192 | 3.0 | 8.0 | 0.00 | 0.00 | 0.00 | 35 | 1010.5 |
| 20260902190050 | 99 | 63 | 5.0 | 11.0 | 0.00 | 0.00 | 0.00 | 34 | 1010.7 |
| 20260902184549 | 99 | 276 | 2.0 | 4.0 | 0.00 | 0.00 | 0.00 | 33 | 1010.8 |
| 20260902183052 | 99 | 130 | 3.0 | 7.0 | 0.00 | 0.00 | 0.00 | 33 | 1011.0 |
| 20260902181545 | 98 | 129 | 3.0 | 5.0 | 0.00 | 0.00 | 0.00 | 35 | 1011.3 |
| 20260902180049 | 96 | 240 | 1.0 | 7.0 | 0.00 | 0.00 | 0.00 | 39 | 1011.6 |
| 20260902174540 | 97 | 186 | 3.0 | 7.0 | 0.00 | 0.00 | 0.00 | 39 | 1011.8 |
| 20260902173037 | 95 | 223 | 3.0 | 7.0 | 0.00 | 0.00 | 0.00 | 40 | 1012.2 |
| 20260902171534 | 95 | 150 | 3.0 | 10.0 | 0.00 | 0.00 | 0.00 | 40 | 1012.4 |
| 20260902170031 | 94 | 221 | 7.0 | 11.0 | 0.00 | 0.00 | 0.00 | 42 | 1012.5 |
| 20260902164528 | 93 | 221 | 5.0 | 10.0 | 0.00 | 0.00 | 0.00 | 44 | 1012.8 |
| 20260902163027 | 92 | 233 | 6.0 | 14.0 | 0.00 | 0.00 | 0.00 | 47 | 1012.9 |
| 20260902161521 | 91 | 215 | 7.0 | 13.0 | 0.00 | 0.00 | 0.00 | 47 | 1013.0 |
| 20260902160017 | 90 | 207 | 5.0 | 11.0 | 0.00 | 0.00 | 0.00 | 53 | 1013.2 |
| 20260902154513 | 88 | 186 | 4.0 | 9.0 | 0.00 | 0.00 | 0.00 | 56 | 1013.3 |
| 20260902153009 | 87 | 212 | 6.0 | 10.0 | 0.00 | 0.00 | 0.00 | 57 | 1013.2 |
| 20260902151508 | 85 | 267 | 3.0 | 5.0 | 0.00 | 0.00 | 0.00 | 60 | 1013.3 |
| 20260902150003 | 83 | 198 | 4.0 | 13.0 | 0.00 | 0.00 | 0.00 | 63 | 1013.3 |
| 20260902144502 | 83 | 217 | 7.0 | 12.0 | 0.00 | 0.00 | 0.00 | 64 | 1013.4 |
| 20260902143001 | 82 | 225 | 5.0 | 11.0 | 0.00 | 0.00 | 0.00 | 65 | 1013.4 |
| 20260902141501 | 81 | 202 | 5.0 | 9.0 | 0.00 | 0.00 | 0.00 | 67 | 1013.2 |
| 20260902140107 | 79 | 207 | 3.0 | 9.0 | 0.00 | 0.00 | 0.00 | 68 | 1013.3 |
| 20260902134619 | 78 | 208 | 4.0 | 9.0 | 0.00 | 0.00 | 0.00 | 69 | 1013.2 |
| 20260902133104 | 77 | 233 | 1.0 | 5.0 | 0.00 | 0.00 | 0.00 | 69 | 1013.1 |
| 20260902131557 | 76 | 210 | 1.0 | 6.0 | 0.00 | 0.00 | 0.00 | 71 | 1013.2 |
| 20260902130054 | 74 | 217 | 3.0 | 7.0 | 0.00 | 0.00 | 0.00 | 71 | 1012.9 |
| 20260902124601 | 74 | 207 | 1.0 | 6.0 | 0.00 | 0.00 | 0.00 | 69 | 1013.0 |
| 20260902123052 | 74 | 173 | 0.0 | 4.0 | 0.00 | 0.00 | 0.00 | 70 | 1012.8 |
| 20260902121551 | 73 | 172 | 0.0 | 4.0 | 0.00 | 0.00 | 0.00 | 70 | 1012.8 |
| 20260902120047 | 74 | 202 | 0.0 | 0.0 | 0.00 | 0.00 | 0.00 | 69 | 1012.6 |
| 20260902114545 | 74 | 202 | 0.0 | 2.0 | 0.00 | 0.00 | 0.00 | 67 | 1012.4 |
| 20260902113044 | 76 | 193 | 0.0 | 2.0 | 0.00 | 0.00 | 0.00 | 65 | 1012.2 |
| 20260902111540 | 76 | 193 | 1.0 | 6.0 | 0.00 | 0.00 | 0.00 | 64 | 1012.3 |
| 20260902110039 | 77 | 205 | 2.0 | 6.0 | 0.00 | 0.00 | 0.00 | 63 | 1012.2 |
| 20260902104544 | 77 | 186 | 3.0 | 7.0 | 0.00 | 0.00 | 0.00 | 62 | 1012.1 |
| 20260902103044 | 76 | 198 | 2.0 | 6.0 | 0.00 | 0.00 | 0.00 | 62 | 1012.1 |
| 20260902101544 | 77 | 184 | 2.0 | 5.0 | 0.00 | 0.00 | 0.00 | 60 | 1012.1 |
| 20260902100033 | 78 | 199 | 2.0 | 5.0 | 0.00 | 0.00 | 0.00 | 59 | 1012.1 |
| 20260902094531 | 78 | 178 | 3.0 | 7.0 | 0.00 | 0.00 | 0.00 | 59 | 1012.2 |
| 20260902093038 | 78 | 202 | 4.0 | 8.0 | 0.00 | 0.00 | 0.00 | 59 | 1012.2 |
| 20260902091536 | 77 | 194 | 3.0 | 6.0 | 0.00 | 0.00 | 0.00 | 59 | 1012.1 |
| 20260902090027 | 77 | 196 | 2.0 | 5.0 | 0.00 | 0.00 | 0.00 | 60 | 1012.0 |
| 20260902084545 | 76 | 184 | 1.0 | 4.0 | 0.00 | 0.00 | 0.00 | 61 | 1012.1 |
| 20260902083038 | 76 | 165 | 0.0 | 0.0 | 0.00 | 0.00 | 0.00 | 61 | 1012.2 |
| 20260902081524 | 77 | 165 | 0.0 | 3.0 | 0.00 | 0.00 | 0.00 | 61 | 1012.2 |
| 20260902080023 | 77 | 165 | 2.0 | 5.0 | 0.00 | 0.00 | 0.00 | 60 | 1012.1 |
| 20260902074522 | 78 | 166 | 3.0 | 5.0 | 0.00 | 0.00 | 0.00 | 60 | 1012.0 |
| 20260902073019 | 78 | 169 | 2.0 | 5.0 | 0.00 | 0.00 | 0.00 | 60 | 1012.1 |
| 20260902071523 | 78 | 157 | 1.0 | 3.0 | 0.00 | 0.00 | 0.00 | 60 | 1012.1 |
| 20260902070021 | 79 | 157 | 2.0 | 5.0 | 0.00 | 0.00 | 0.00 | 59 | 1012.1 |